OPS 4682 DEB, 38446

Orbit data source: Space-Track

OPS 4682 DEB, 38446 is space debris in LEO originally from a launch on Sat, 03 Apr 1965 UTC launched from the Air Force Western Test Range (AFWTR). Debris objects in space refer to the collection of defunct objects orbiting the Earth. Examples of debris include non-operational satellites, rocket bodies, and fragments generated from explosions, collisions, or faulty payload assembly.

Loading next visibility...
Identifier
38446, 1965-027FB
Orbit
LEO
Country
Flag of USUS
Related business
Manufacturer
Unknown
Mission
Spacecraft
Bus & Motor
Unknown
Mass
Unknown
Launch date (UTC)
1965-04-03 (61 years ago)
Launch vehicle
Unknown
Launch site
Air Force Western Test Range (AFWTR)
Object type
Payload
Rocket body
Debris
Shape & HBR
Unknown shape, 0.1 m
Radar Cross Section
Small (<0.1 m²)

Expand to show TLE details & history
Last TLE update: 10 hours ago

TLE from 10 hours ago
0 OPS 4682 DEB
1 38446U 65027FB  26072.81036537 -.00000599  00000-0 -19769-2 0  9994
2 38446  90.2693  25.4933 0012670 306.7805  53.2155 13.01376176574874
Epoch: 2026-03-13T19:26Z
TLE epoch observation values (Epoch: 2026-03-13T19:26:55.567Z)
Latitude
0.00001°
Longitude
-77.67879°
Altitude
1,253.799 km
Speed
7.231 km/s
True Right ascension
01h 41m 58s
True Declination
0° 00' 00"
Sunlit
Object was in daylight at epoch
Visualization orbit readout
Latitude
Unknown
Longitude
Unknown
Altitude
Unknown
Speed
Unknown
Apparent Right ascension
Unknown
Apparent Declination
Unknown
Sunlit
N/A
Visualization observer readout
Local Sidereal Time
09:34:24
Azimuth
Unknown
Elevation
Unknown
Doppler factor
Unknown
Orbital elements
Apogee altitude
1,263.494 km
Perigee altitude
1,244.155 km
Semi-major axis
7,631.961 km
Eccentricity
0.00127
Inclination
90.2693°
RAAN
25.4933°
Arg. of periapsis
306.7805°
True anomaly
53.33189°
Mean anomaly
53.2155°
Eccentric anomaly
53.27368°
Mean motion
3.25528 °/min
Orbital period
110.59 mins
BSTAR
-0.0019769
Loading maneuver chart data...
Computing Atmospheric mass density...
Loading historical data...
Loading historical data...
Loading historical data...
Loading historical data...
Loading historical data...
Loading historical data...
Loading historical data...

Documentation

Showing up to 5 results
|